When you browse on this site, cookies collect data to enhance your experience and personalize the content and advertising you see.
Visit our Privacy Policy to learn more. By continuing to use the site, you agree to this use of cookies and data.
  • En España
  • Lista de países
  • Para 7 días
  • Temperatura del agua
  • El tiempo en el mapa
  • Informadores
  • user-avatar
    Iniciar sesión

    Tiempo cada hora Abovyan

    Hoy, 6 Junio, Sábado

    Tiempo Temperatura Precipitaciones Viento Presión Humedad
    00:00 +16°C° 0.1 mm 2 mps 674 mmHg 49%
    01:00 +16°C° 0 mm 2 mps 674 mmHg 51%
    02:00 +15°C° 0 mm 2 mps 674 mmHg 53%
    03:00 +15°C° 0 mm 2 mps 673 mmHg 53%
    04:00 +16°C° 0 mm 2 mps 674 mmHg 54%
    05:00 +16°C° 0 mm 2 mps 674 mmHg 54%
    06:00 +18°C° 0 mm 1 mps 675 mmHg 54%
    07:00 +19°C° 0 mm 2 mps 675 mmHg 49%
    08:00 +21°C° 0 mm 2 mps 675 mmHg 43%
    09:00 +24°C° 0 mm 2 mps 676 mmHg 38%
    10:00 +25°C° 0.1 mm 2 mps 676 mmHg 34%
    11:00 +26°C° 0.1 mm 2 mps 676 mmHg 31%
    12:00 +27°C° 0.1 mm 2 mps 676 mmHg 28%
    13:00 +28°C° 0.1 mm 2 mps 676 mmHg 27%
    14:00 +28°C° 0.1 mm 2 mps 675 mmHg 25%
    15:00 +29°C° 0.1 mm 3 mps 675 mmHg 24%
    16:00 +28°C° 0 mm 3 mps 675 mmHg 29%
    17:00 +27°C° 0 mm 4 mps 675 mmHg 34%
    18:00 +26°C° 0 mm 4 mps 675 mmHg 39%
    19:00 +23°C° 0 mm 4 mps 674 mmHg 42%
    20:00 +21°C° 0 mm 4 mps 674 mmHg 45%
    21:00 +18°C° 0 mm 3 mps 674 mmHg 48%
    22:00 +18°C° 0 mm 3 mps 674 mmHg 46%
    23:00 +17°C° 0 mm 3 mps 674 mmHg 44%

    Mañana, 7 Junio, Domingo

    Tiempo Temperatura Precipitaciones Viento Presión Humedad
    00:00 +16°C° 0 mm 2 mps 674 mmHg 42%
    01:00 +15°C° 0 mm 2 mps 674 mmHg 42%
    02:00 +15°C° 0 mm 2 mps 674 mmHg 42%
    03:00 +14°C° 0 mm 1 mps 673 mmHg 42%
    04:00 +15°C° 0 mm 1 mps 674 mmHg 43%
    05:00 +16°C° 0 mm 1 mps 674 mmHg 43%
    06:00 +18°C° 0 mm 1 mps 674 mmHg 43%
    07:00 +20°C° 0 mm 1 mps 674 mmHg 40%
    08:00 +22°C° 0 mm 1 mps 675 mmHg 36%
    09:00 +24°C° 0 mm 1 mps 675 mmHg 33%
    10:00 +25°C° 0 mm 1 mps 675 mmHg 31%
    11:00 +26°C° 0 mm 1 mps 675 mmHg 29%
    12:00 +28°C° 0 mm 1 mps 675 mmHg 27%
    13:00 +28°C° 0 mm 1 mps 674 mmHg 26%
    14:00 +29°C° 0 mm 1 mps 674 mmHg 25%
    15:00 +29°C° 0 mm 1 mps 674 mmHg 24%
    16:00 +29°C° 0 mm 1 mps 674 mmHg 27%
    17:00 +29°C° 0 mm 1 mps 673 mmHg 31%
    18:00 +28°C° 0 mm 1 mps 673 mmHg 34%
    19:00 +26°C° 0 mm 1 mps 673 mmHg 38%
    20:00 +23°C° 0 mm 2 mps 673 mmHg 42%
    21:00 +20°C° 0 mm 2 mps 673 mmHg 46%
    22:00 +19°C° 0 mm 2 mps 672 mmHg 47%
    23:00 +19°C° 0 mm 2 mps 672 mmHg 47%

    Pasado mañana, 8 Junio, Lunes

    Tiempo Temperatura Precipitaciones Viento Presión Humedad
    00:00 +18°C° 0 mm 2 mps 672 mmHg 47%
    01:00 +18°C° 0 mm 2 mps 672 mmHg 49%
    02:00 +17°C° 0 mm 2 mps 672 mmHg 50%
    03:00 +17°C° 0 mm 2 mps 672 mmHg 52%
    04:00 +18°C° 0 mm 1 mps 672 mmHg 54%
    05:00 +19°C° 0 mm 1 mps 672 mmHg 56%
    06:00 +20°C° 0 mm 1 mps 672 mmHg 59%
    07:00 +22°C° 0 mm 1 mps 672 mmHg 53%
    08:00 +24°C° 0 mm 1 mps 673 mmHg 47%
    09:00 +26°C° 0 mm 2 mps 673 mmHg 42%
    10:00 +27°C° 0 mm 2 mps 673 mmHg 38%
    11:00 +28°C° 0 mm 2 mps 673 mmHg 35%
    12:00 +29°C° 0 mm 2 mps 673 mmHg 31%
    13:00 +30°C° 0 mm 2 mps 673 mmHg 29%
    14:00 +30°C° 0 mm 2 mps 672 mmHg 26%
    15:00 +31°C° 0 mm 1 mps 672 mmHg 23%
    16:00 +30°C° 0 mm 2 mps 672 mmHg 27%
    17:00 +30°C° 0 mm 2 mps 672 mmHg 31%
    18:00 +29°C° 0 mm 2 mps 672 mmHg 35%
    19:00 +27°C° 0 mm 2 mps 671 mmHg 40%
    20:00 +25°C° 0 mm 3 mps 671 mmHg 45%
    21:00 +21°C° 0 mm 3 mps 671 mmHg 50%
    22:00 +20°C° 0 mm 3 mps 671 mmHg 51%
    23:00 +20°C° 0 mm 2 mps 671 mmHg 51%

    9 Junio, Martes

    Tiempo Temperatura Precipitaciones Viento Presión Humedad
    00:00 +19°C° 0 mm 2 mps 671 mmHg 52%
    01:00 +18°C° 0 mm 2 mps 671 mmHg 53%
    02:00 +18°C° 0 mm 2 mps 670 mmHg 54%
    03:00 +18°C° 0 mm 1 mps 670 mmHg 55%
    04:00 +19°C° 0 mm 1 mps 671 mmHg 55%
    05:00 +20°C° 0 mm 1 mps 671 mmHg 56%
    06:00 +21°C° 0 mm 1 mps 671 mmHg 56%
    07:00 +23°C° 0 mm 1 mps 672 mmHg 51%
    08:00 +25°C° 0 mm 1 mps 672 mmHg 45%
    09:00 +27°C° 0 mm 1 mps 672 mmHg 40%
    10:00 +28°C° 0 mm 2 mps 672 mmHg 36%
    11:00 +29°C° 0 mm 2 mps 672 mmHg 33%
    12:00 +31°C° 0 mm 2 mps 673 mmHg 29%
    13:00 +31°C° 0 mm 2 mps 672 mmHg 27%
    14:00 +32°C° 0 mm 2 mps 672 mmHg 26%
    15:00 +32°C° 0 mm 2 mps 672 mmHg 25%
    16:00 +30°C° 0.1 mm 3 mps 672 mmHg 32%
    17:00 +28°C° 0.1 mm 4 mps 672 mmHg 40%
    18:00 +26°C° 0.1 mm 5 mps 672 mmHg 48%
    19:00 +23°C° 0.3 mm 4 mps 672 mmHg 52%
    20:00 +22°C° 0.3 mm 3 mps 673 mmHg 56%
    21:00 +20°C° 0.3 mm 3 mps 673 mmHg 60%
    22:00 +19°C° 0.1 mm 2 mps 673 mmHg 61%
    23:00 +19°C° 0.1 mm 2 mps 672 mmHg 62%

    10 Junio, Miércoles

    Tiempo Temperatura Precipitaciones Viento Presión Humedad
    00:00 +18°C° 0.1 mm 2 mps 672 mmHg 63%
    01:00 +18°C° 0 mm 2 mps 672 mmHg 64%
    02:00 +18°C° 0 mm 1 mps 672 mmHg 65%
    03:00 +18°C° 0 mm 1 mps 671 mmHg 66%
    04:00 +19°C° 0 mm 1 mps 672 mmHg 65%
    05:00 +20°C° 0 mm 1 mps 672 mmHg 63%
    06:00 +21°C° 0 mm 1 mps 672 mmHg 61%
    07:00 +22°C° 0 mm 1 mps 672 mmHg 56%
    08:00 +24°C° 0 mm 1 mps 673 mmHg 51%
    09:00 +26°C° 0 mm 2 mps 673 mmHg 45%
    10:00 +27°C° 0.1 mm 2 mps 673 mmHg 42%
    11:00 +29°C° 0.1 mm 2 mps 673 mmHg 38%
    12:00 +30°C° 0.1 mm 2 mps 673 mmHg 34%
    13:00 +31°C° 0 mm 2 mps 673 mmHg 31%
    14:00 +32°C° 0 mm 2 mps 673 mmHg 29%
    15:00 +32°C° 0 mm 2 mps 673 mmHg 26%
    16:00 +32°C° 0 mm 2 mps 673 mmHg 29%
    17:00 +31°C° 0 mm 1 mps 673 mmHg 33%
    18:00 +31°C° 0 mm 1 mps 673 mmHg 36%
    19:00 +28°C° 0.2 mm 2 mps 673 mmHg 41%
    20:00 +25°C° 0.2 mm 2 mps 673 mmHg 46%
    21:00 +22°C° 0.2 mm 3 mps 673 mmHg 52%
    22:00 +21°C° 0 mm 2 mps 673 mmHg 52%
    23:00 +21°C° 0 mm 2 mps 672 mmHg 53%

    11 Junio, Jueves

    Tiempo Temperatura Precipitaciones Viento Presión Humedad
    00:00 +20°C° 0 mm 2 mps 672 mmHg 53%
    01:00 +20°C° 0 mm 2 mps 672 mmHg 55%
    02:00 +20°C° 0 mm 1 mps 671 mmHg 56%
    03:00 +19°C° 0 mm 1 mps 671 mmHg 58%
    04:00 +20°C° 0 mm 1 mps 671 mmHg 57%
    05:00 +21°C° 0 mm 1 mps 672 mmHg 57%
    06:00 +22°C° 0 mm 1 mps 672 mmHg 57%
    07:00 +24°C° 0 mm 1 mps 672 mmHg 52%
    08:00 +25°C° 0 mm 1 mps 672 mmHg 46%
    09:00 +27°C° 0 mm 2 mps 672 mmHg 41%
    10:00 +28°C° 0 mm 2 mps 672 mmHg 38%
    11:00 +30°C° 0 mm 2 mps 672 mmHg 35%
    12:00 +31°C° 0 mm 2 mps 672 mmHg 32%
    13:00 +31°C° 0.1 mm 2 mps 672 mmHg 31%
    14:00 +32°C° 0.1 mm 2 mps 672 mmHg 30%
    15:00 +34°C° 0.1 mm 2 mps 671 mmHg 28%
    16:00 +30°C° 0.4 mm 3 mps 671 mmHg 37%
    17:00 +28°C° 0.4 mm 3 mps 671 mmHg 45%
    18:00 +26°C° 0.4 mm 4 mps 671 mmHg 53%
    19:00 +24°C° 0.9 mm 3 mps 671 mmHg 58%
    20:00 +22°C° 0.9 mm 3 mps 671 mmHg 63%
    21:00 +20°C° 0.9 mm 3 mps 671 mmHg 68%
    22:00 +20°C° 0 mm 2 mps 671 mmHg 69%
    23:00 +20°C° 0 mm 1 mps 671 mmHg 70%
    Mostrar más